Regional Weather Roundup
Issued by NWS Burlington, VT

Home | Current Version | Previous Version | Graphics & Text | Print | Product List | Glossary On
Versions: 1 2 3 4 5 6 7 8 9 10 11 12 13 14 15 16 17 18 19 20 21 22 23 24 25 26 27 28 29 30 31 32 33 34 35 36 37 38 39 40 41 42 43 44 45 46 47 48 49 50
000
ASUS41 KBTV 210010
RWRBTV
VERMONT REGIONAL WEATHER ROUNDUP
NATIONAL WEATHER SERVICE BURLINGTON VT
800 PM EDT SUN AUG 20 2017

NOTE: "FAIR" INDICATES FEW OR NO CLOUDS BELOW 12,000 FEET WITH NO
SIGNIFICANT WEATHER AND/OR OBSTRUCTIONS TO VISIBILITY.

* THESE REPORTS ARE NOT UNDER NWS QUALITY CONTROL AND/OR DO NOT
  REPORT WEATHER SUCH AS PRECIPITATION AND FOG.

VTZ001>019-210100-
_____VERMONT_____


CITY           SKY/WX    TMP DP  RH WIND       PRES   REMARKS
BURLINGTON     PTCLDY    75  59  57 SW3       30.03R
6HR MIN TEMP:  75; 6HR MAX TEMP:  82;

MONTPELIER     CLEAR     64  60  87 S5        30.09R
6HR MIN TEMP:  64; 6HR MAX TEMP:  75;

MORRISVILLE    PTCLDY    64  61  90 CALM      30.06R
6HR MIN TEMP:  64; 6HR MAX TEMP:  76;

ST. JOHNSBURY*   N/A     68  62  81 MISG      30.03R
6HR MIN TEMP:  68; 6HR MAX TEMP:  77;

LYNDONVILLE*   FAIR      66  58  74 CALM      30.07R
6HR MIN TEMP:  66; 6HR MAX TEMP:  74;

MIDDLEBURY*    FAIR      67  62  83 SE3       30.04R
6HR MIN TEMP:  67; 6HR MAX TEMP:  79;

RUTLAND*       CLEAR     67  61  81 SE5       30.06S
6HR MIN TEMP:  67; 6HR MAX TEMP:  78;

SPRINGFIELD    CLEAR     68  60  75 CALM      30.06R
6HR MIN TEMP:  68; 6HR MAX TEMP:  79;

HIGHGATE*      FAIR      69  62  79 CALM      30.02R
6HR MIN TEMP:  69; 6HR MAX TEMP:  79;

NEWPORT*       FAIR      66  59  76 CALM      30.05R
6HR MIN TEMP:  66; 6HR MAX TEMP:  74;

BENNINGTON     CLEAR     69  60  73 SW6       30.09R
6HR MIN TEMP:  68; 6HR MAX TEMP:  80;


_____LAKE CHAMPLAIN_____


CITY           SKY/WX    TMP DP  RH WIND       PRES   REMARKS
BURTON ISLAND*   N/A     75  64  69 W3          N/A
COLCHESTER RF*   N/A    N/A N/A N/A W5          N/A
DIAMOND ISL*     N/A     75  57  53 W6          N/A

$$

NYZ007-026>031-035-052-083-087-210100-
_____NORTHERN NEW YORK_____


CITY           SKY/WX    TMP DP  RH WIND       PRES   REMARKS
PLATTSBURGH    CLEAR     70  61  73 CALM      30.02R
6HR MIN TEMP:  69; 6HR MAX TEMP:  82;

SARANAC LAKE   CLEAR     65  60  84 W3        30.09R
6HR MIN TEMP:  65; 6HR MAX TEMP:  74;

MASSENA        CLEAR     71  65  81 SW7       30.03R
6HR MIN TEMP:  71; 6HR MAX TEMP:  80;

OGDENSBURG*    FAIR      72  64  76 SW5       30.03S
6HR MIN TEMP:  72; 6HR MAX TEMP:  81;

POTSDAM*       CLEAR     70  68  94 SW3       30.05R
WATERTOWN      CLEAR     70  65  84 CALM      30.06R
6HR MIN TEMP:  70; 6HR MAX TEMP:  76;

FT DRUM        CLEAR     70  62  74 SW5       30.06R
6HR MIN TEMP:  70; 6HR MAX TEMP:  76;

ALBANY         PTCLDY    73  58  59 W6        30.07R
6HR MIN TEMP:  73; 6HR MAX TEMP:  81;

GLENS FALLS    CLEAR     66  61  84 CALM      30.05R
6HR MIN TEMP:  66; 6HR MAX TEMP:  81;


$$
NHZ002-005-011-210100-
_____NEW HAMPSHIRE_____


CITY           SKY/WX    TMP DP  RH WIND       PRES   REMARKS
LEBANON        CLEAR     66  62  87 CALM      30.04R
6HR MIN TEMP:  66; 6HR MAX TEMP:  81;

KEENE            N/A    N/A N/A N/A MISG        N/A
MT WASHINGTON  FOG       46  46 100 W46         N/A  VSB 1/16
6HR MIN TEMP:  44; 6HR MAX TEMP:  47;

PLYMOUTH       FAIR      65  61  85 CALM      30.04R
6HR MIN TEMP:  65; 6HR MAX TEMP:  78;

WHITEFIELD     CLEAR     64  58  80 CALM      30.04R
6HR MIN TEMP:  64; 6HR MAX TEMP:  76;


$$

_____REGIONAL QUEBEC LOCATIONS_____


CITY           SKY/WX    TMP DP  RH WIND       PRES   REMARKS
MONTREAL       PTCLDY    73  63  68 W8        30.00R
QUEBEC CITY    PTCLDY    68  63  83 SW5       29.93R
SHERBROOKE     PTCLDY    68  59  73 SW3       30.01R

_____REGIONAL ONTARIO LOCATIONS_____


CITY           SKY/WX    TMP DP  RH WIND       PRES   REMARKS
OTTAWA         PTCLDY    72  63  73 S5        30.01R

______KEY______
VSB  - VISIBILITY IN MILES
WCI  - WIND CHILL INDEX
HX   - HEAT INDEX
$$
NNNN




USA.gov is the U.S. government's official web portal to all federal, state and local government web resources and services.